Total_Precipitation_Accumulation
1.64 1.51 1.54 1.59 1.56 1.42 1.44 1.36 1.45 1.80 1.76 1.61 1.35 1.12 0.97 0.95 1.02 0.96 0.98 1.15 1.67 2.37 2.68 2.83 3.08 3.49 3.97
2.05 1.91 1.81 1.67 1.49 1.26 1.19 1.29 1.33 1.89 2.10 2.09 1.87 1.47 1.38 1.38 1.26 1.21 1.26 1.25 1.34 1.47 1.99 2.41 2.60 2.56 2.63
1.57 1.31 1.35 1.53 1.73 1.74 1.58 1.49 1.43 1.95 2.05 2.26 2.23 2.01 1.65 1.53 1.60 1.75 1.85 1.79 1.76 1.88 1.84 2.18 2.51 2.54 2.87
1.69 1.53 1.33 1.29 1.38 1.41 1.40 1.27 1.09 1.02 1.35 1.95 2.11 1.90 1.91 1.62 1.47 1.50 1.79 2.12 2.47 2.43 2.24 2.37 2.39 2.53 2.66
1.83 1.44 1.26 1.18 1.20 1.25 1.35 1.38 1.40 1.34 1.19 1.41 1.17 1.13 1.26 1.49 1.44 1.59 1.75 2.02 2.08 2.13 2.36 3.05 3.17 3.26 2.98
1.39 1.28 1.18 1.22 1.31 1.51 1.65 1.79 1.81 1.36 1.36 1.53 1.32 1.20 0.97 0.93 1.31 1.53 2.06 1.90 1.72 1.76 1.92 2.25 2.42 2.49 2.65
1.30 1.13 1.15 1.24 1.58 1.72 1.69 1.76 1.65 1.37 1.68 1.99 1.69 1.47 1.23 1.18 1.25 1.34 1.62 1.51 1.33 1.31 1.35 1.45 1.64 1.71 1.60
1.82 1.80 1.83 1.78 1.84 2.02 1.86 1.83 1.69 1.43 1.27 1.53 1.26 1.25 1.20 1.15 1.34 1.24 1.28 0.94 0.84 0.91 0.93 0.96 0.98 0.97 1.12
1.84 1.95 2.02 1.96 1.82 1.74 1.67 1.71 1.56 0.96 0.76 0.87 0.95 1.16 1.30 1.02 0.82 1.12 1.16 0.88 0.81 0.88 0.75 0.68 0.77 0.85 0.80
0.88 0.90 0.93 0.98 1.15 0.93 0.89 1.35 1.34 1.45 0.87 1.27 0.98 0.96 1.43 0.99 0.77 0.78 0.69 0.72 0.62 0.63 0.83 0.89 0.80 0.79 0.74
0.55 0.55 0.58 0.68 0.75 0.79 0.84 1.28 1.76 1.43 0.78 1.81 1.72 1.07 1.38 0.78 0.56 0.64 0.53 0.48 0.46 0.50 0.62 0.80 1.05 1.14 1.05
0.35 0.34 0.43 0.56 0.64 0.75 0.95 1.17 1.30 1.37 0.93 1.38 2.20 1.20 1.60 1.33 0.75 0.65 0.67 0.51 0.45 0.51 0.60 0.87 1.06 1.21 1.36
0.31 0.30 0.32 0.40 0.57 0.77 0.94 1.10 1.24 1.25 1.33 1.40 1.62 1.45 1.86 1.80 1.07 0.71 0.87 0.87 0.66 0.59 0.65 0.74 0.82 0.94 1.11
0.40 0.35 0.40 0.53 0.67 0.75 0.93 0.95 1.21 1.11 1.19 1.44 1.55 1.82 2.16 1.51 1.43 1.23 0.76 0.96 0.82 0.68 0.71 0.67 0.72 0.89 1.05
0.67 0.68 0.64 0.63 0.62 0.65 0.93 1.16 1.37 1.03 1.01 1.18 1.51 1.61 1.57 1.51 1.69 1.05 0.83 0.76 0.67 0.80 0.90 0.79 0.62 0.83 0.95
0.84 0.84 0.95 0.94 0.93 0.98 1.04 1.17 1.14 0.89 0.99 1.14 1.32 1.67 1.47 1.24 1.14 1.09 1.11 0.85 0.74 0.68 0.72 1.11 0.65 0.47 0.56
1.12 1.15 1.25 1.31 1.45 1.23 0.94 1.03 1.02 0.86 0.91 1.08 1.46 1.91 2.05 1.04 0.71 0.79 1.19 1.07 0.83 0.82 0.71 0.76 0.75 0.45 0.46